User: anonymous   Login
Location: NJAA Observatory
(40.6819°N, 74.8979°W)
Time: 14:12:36
(UTC-04:00)
Language:

Cosmos 220 Rocket - Orbit

View from above orbital plane
View from above orbital plane
View from above satellite
View from above satellite

Ground track
Ground track

The orbit data is extracted from the following two-line orbital elements,

1 03230U 68040B   15210.47939566  .00000609  00000-0  67807-4 0  9991
2 03230 074.0354 180.8232 0032182 313.8706 045.9817 14.89305994532951
Epoch (UTC): 29 July 2015 11:30:19
Eccentricity: 0.0032182
inclination: 74.0354°
perigee height: 577 km
apogee height: 622 km
right ascension of ascending node: 180.8232°
argument of perigee: 313.8706°
revolutions per day: 14.89305994
mean anomaly at epoch: 45.9817°
orbit number at epoch: 53295

The dashed part of the orbit path shows where the satellite is in the earth's shadow,  

DLR